Location: Unspecified
(0.0000°N, 0.0000°E)
Time: 06:27:29
(UTC+02:00)

DELTA 2 R/B (1) - Visible Passes

Search period start: 22 April 2018 00:00
Search period end: 02 May 2018 00:00
Orbit: 791 x 802 km, 39.6° (Epoch: 21 April)

Date Brightness Start Highest point End Pass type
(mag) Time Alt. Az. Time Alt. Az. Time Alt. Az.
22 Apr 4.0 21:26:22 10° NNW 21:31:36 43° NE 21:32:05 42° ENE visible
23 Apr 4.2 20:55:38 10° NNW 21:00:45 38° NE 21:03:22 24° E visible
23 Apr 5.9 22:42:16 10° WNW 22:44:11 19° W 22:44:11 19° W visible
24 Apr 4.4 20:24:56 10° NNW 20:29:54 34° NE 20:34:41 11° ESE visible
24 Apr 4.9 22:11:15 10° WNW 22:15:30 32° WSW 22:15:30 32° WSW visible
25 Apr 6.1 07:18:51 10° SSE 07:21:11 13° SE 07:23:31 10° ESE visible
25 Apr 4.6 21:40:14 10° WNW 21:45:21 38° SW 21:46:50 32° S visible
26 Apr 6.2 06:48:52 10° SSE 06:50:17 11° SE 06:51:42 10° SE visible
26 Apr 4.5 21:09:16 10° WNW 21:14:30 43° SW 21:18:10 19° SSE visible
27 Apr 4.3 20:38:18 10° WNW 20:43:38 49° SW 20:49:00 10° SSE visible
28 Apr 4.2 07:29:37 10° SW 07:35:07 58° SE 07:40:37 10° ENE visible
29 Apr 4.3 06:58:59 11° SSW 07:04:16 51° SE 07:09:41 10° ENE visible
30 Apr 4.4 06:30:18 23° SSW 06:33:24 45° SE 06:38:43 10° ENE visible
30 Apr 6.2 20:56:44 10° SW 20:57:38 10° SW 20:58:33 10° SSW visible
01 May 4.5 06:01:37 37° SSE 06:02:33 39° SE 06:07:44 10° ENE visible
01 May 6.1 20:24:41 10° WSW 20:26:44 12° SW 20:28:48 10° SSW visible
